Location: Newark
(55.7678°N, 23.6664°E)
Time: 01:56:40
(UTC+00:00)

Envisat - Visible Passes

Search period start: 01 October 2020 00:00
Search period end: 11 October 2020 00:00
Orbit: 764 x 766 km, 98.1° (Epoch: 30 September)

Date Brightness Start Highest point End Pass type
(mag) Time Alt. Az. Time Alt. Az. Time Alt. Az.
01 Oct 6.2 03:06:06 10° NE 03:09:04 15° E 03:12:01 10° ESE visible
02 Oct 6.3 17:11:24 10° WSW 17:14:12 15° W 17:17:02 10° NW visible
03 Oct 5.8 03:30:48 10° NE 03:34:52 23° E 03:38:54 10° SE visible
03 Oct 5.6 16:32:37 10° SSW 16:36:54 27° W 16:41:12 10° NNW visible
04 Oct 6.4 02:55:19 10° NE 02:57:31 13° E 02:59:42 10° ESE visible
05 Oct 5.0 03:55:53 10° NNE 04:00:34 35° E 04:05:13 10° SSE visible
05 Oct 6.2 16:59:17 10° SW 17:02:40 18° W 17:06:05 10° NW visible
06 Oct 6.0 03:19:41 10° NE 03:23:21 20° E 03:27:01 10° SE visible
06 Oct 5.2 16:20:54 10° SSW 16:25:25 32° W 16:30:00 10° NNW visible
07 Oct 6.7 02:45:17 10° ENE 02:45:56 10° E 02:46:36 10° E visible
07 Oct 6.6 17:27:00 10° W 17:28:32 11° W 17:30:04 10° WNW visible
08 Oct 5.3 03:44:38 10° NNE 03:49:06 30° E 03:53:32 10° SSE visible
08 Oct 5.9 16:47:20 10° SW 16:51:09 21° W 16:55:00 10° NW visible
09 Oct 6.2 03:08:39 10° NE 03:11:50 16° E 03:14:59 10° ESE visible
09 Oct 4.8 16:09:15 10° SSW 16:13:58 38° W 16:18:43 10° NNW visible
10 Oct 6.4 17:14:25 10° WSW 17:16:59 14° W 17:19:32 10° NW visible
